Location: Bois de la Silve
(44.4667°N, 6.7833°E)
Time: 08:38:28
(UTC+00:00)

Meteor 1-4 Rocket - Pass Details

Date: 14 July 2020
Orbit: 448 x 503 km, 81.2° (Epoch: 14 August)

Event Time Altitude Azimuth Distance (km) Brightness Sun altitude
Rises 00:15:59 0° 350° (N) 2,587 7.5 -23.4°
Reaches altitude 10° 00:18:07 10° 352° (N) 1,691 6.3 -23.3°
Enters shadow 00:21:25 66° 16° (NNE) 533 2.8 -23.2°
